• en France
  • Liste des pays
  • À 7 jours
  • Température de l'eau
  • Carte satellitaire
  • Carte météo
  • Widgets météo
  • user-avatar
    Se connecter

    Météo par heure à Aberdeen

    Ce jour, 18 Juillet, Mercredi

    Heure Température Précipitation Vent Pression Humidité
    00:00 +10°C° 0 mm 2 m/s 753 mmHg 91%
    01:00 +10°C° 0 mm 2 m/s 753 mmHg 91%
    02:00 +10°C° 0 mm 2 m/s 753 mmHg 90%
    03:00 +10°C° 0 mm 2 m/s 753 mmHg 90%
    04:00 +10°C° 0 mm 2 m/s 753 mmHg 88%
    05:00 +12°C° 0 mm 2 m/s 753 mmHg 86%
    06:00 +13°C° 0 mm 1 m/s 754 mmHg 84%
    07:00 +14°C° 0 mm 1 m/s 754 mmHg 80%
    08:00 +16°C° 0 mm 1 m/s 754 mmHg 76%
    09:00 +18°C° 0 mm 1 m/s 754 mmHg 71%
    10:00 +17°C° 0,1 mm 2 m/s 754 mmHg 71%
    11:00 +18°C° 0,1 mm 2 m/s 754 mmHg 71%
    12:00 +19°C° 0,1 mm 3 m/s 754 mmHg 70%
    13:00 +19°C° 0,1 mm 3 m/s 755 mmHg 72%
    14:00 +19°C° 0,1 mm 3 m/s 755 mmHg 74%
    15:00 +19°C° 0,1 mm 3 m/s 755 mmHg 75%
    16:00 +18°C° 0,1 mm 3 m/s 755 mmHg 77%
    17:00 +18°C° 0,1 mm 3 m/s 755 mmHg 79%
    18:00 +18°C° 0,1 mm 3 m/s 755 mmHg 81%
    19:00 +17°C° 0 mm 3 m/s 755 mmHg 84%
    20:00 +16°C° 0 mm 2 m/s 756 mmHg 87%
    21:00 +14°C° 0 mm 2 m/s 756 mmHg 90%
    22:00 +14°C° 0 mm 2 m/s 756 mmHg 91%
    23:00 +13°C° 0 mm 2 m/s 756 mmHg 91%

    Demain, 19 Juillet, Jeudi

    Heure Température Précipitation Vent Pression Humidité
    00:00 +12°C° 0 mm 2 m/s 756 mmHg 92%
    01:00 +12°C° 0 mm 2 m/s 756 mmHg 92%
    02:00 +12°C° 0 mm 2 m/s 756 mmHg 92%
    03:00 +10°C° 0 mm 2 m/s 756 mmHg 93%
    04:00 +12°C° 0 mm 2 m/s 756 mmHg 91%
    05:00 +13°C° 0 mm 2 m/s 756 mmHg 90%
    06:00 +13°C° 0 mm 2 m/s 756 mmHg 88%
    07:00 +15°C° 0 mm 2 m/s 756 mmHg 81%
    08:00 +16°C° 0 mm 2 m/s 756 mmHg 74%
    09:00 +18°C° 0 mm 2 m/s 756 mmHg 67%
    10:00 +19°C° 0 mm 3 m/s 756 mmHg 63%
    11:00 +19°C° 0 mm 3 m/s 756 mmHg 59%
    12:00 +20°C° 0 mm 3 m/s 756 mmHg 55%
    13:00 +20°C° 0 mm 3 m/s 755 mmHg 56%
    14:00 +20°C° 0 mm 3 m/s 755 mmHg 57%
    15:00 +20°C° 0 mm 4 m/s 755 mmHg 58%
    16:00 +20°C° 0 mm 4 m/s 755 mmHg 61%
    17:00 +19°C° 0 mm 4 m/s 755 mmHg 63%
    18:00 +19°C° 0 mm 4 m/s 755 mmHg 66%
    19:00 +17°C° 0 mm 3 m/s 755 mmHg 72%
    20:00 +14°C° 0 mm 3 m/s 755 mmHg 79%
    21:00 +13°C° 0 mm 3 m/s 755 mmHg 85%
    22:00 +12°C° 0 mm 3 m/s 754 mmHg 87%
    23:00 +12°C° 0 mm 3 m/s 754 mmHg 88%

    Après-demain, 20 Juillet, Vendredi

    Heure Température Précipitation Vent Pression Humidité
    00:00 +11°C° 0 mm 3 m/s 754 mmHg 90%
    01:00 +11°C° 0,1 mm 3 m/s 754 mmHg 90%
    02:00 +11°C° 0,1 mm 3 m/s 753 mmHg 90%
    03:00 +11°C° 0,1 mm 3 m/s 753 mmHg 90%
    04:00 +11°C° 0,8 mm 3 m/s 753 mmHg 91%
    05:00 +12°C° 0,8 mm 3 m/s 752 mmHg 93%
    06:00 +13°C° 0,8 mm 2 m/s 752 mmHg 95%
    07:00 +12°C° 1,3 mm 3 m/s 752 mmHg 95%
    08:00 +12°C° 1,3 mm 3 m/s 752 mmHg 96%
    09:00 +13°C° 1,3 mm 3 m/s 752 mmHg 96%
    10:00 +13°C° 0,5 mm 3 m/s 751 mmHg 95%
    11:00 +14°C° 0,5 mm 3 m/s 751 mmHg 94%
    12:00 +14°C° 0,5 mm 3 m/s 751 mmHg 94%
    13:00 +16°C° 0,1 mm 3 m/s 751 mmHg 92%
    14:00 +16°C° 0,1 mm 3 m/s 751 mmHg 91%
    15:00 +17°C° 0,1 mm 3 m/s 751 mmHg 90%
    16:00 +17°C° 0 mm 3 m/s 751 mmHg 89%
    17:00 +17°C° 0 mm 2 m/s 751 mmHg 88%
    18:00 +18°C° 0 mm 2 m/s 751 mmHg 87%
    19:00 +17°C° 0,1 mm 2 m/s 751 mmHg 90%
    20:00 +16°C° 0,1 mm 2 m/s 751 mmHg 92%
    21:00 +16°C° 0,1 mm 2 m/s 752 mmHg 94%
    22:00 +15°C° 0,1 mm 2 m/s 752 mmHg 95%
    23:00 +15°C° 0,1 mm 2 m/s 752 mmHg 95%

    21 Juillet, Samedi

    Heure Température Précipitation Vent Pression Humidité
    00:00 +14°C° 0,1 mm 2 m/s 752 mmHg 96%
    01:00 +14°C° 0 mm 2 m/s 752 mmHg 96%
    02:00 +13°C° 0 mm 2 m/s 752 mmHg 96%
    03:00 +13°C° 0 mm 2 m/s 752 mmHg 96%
    04:00 +13°C° 0 mm 2 m/s 752 mmHg 95%
    05:00 +13°C° 0 mm 2 m/s 752 mmHg 94%
    06:00 +14°C° 0 mm 2 m/s 752 mmHg 93%
    07:00 +15°C° 0 mm 2 m/s 752 mmHg 88%
    08:00 +16°C° 0 mm 2 m/s 752 mmHg 83%
    09:00 +18°C° 0 mm 1 m/s 753 mmHg 78%
    10:00 +17°C° 0 mm 2 m/s 753 mmHg 77%
    11:00 +18°C° 0 mm 2 m/s 753 mmHg 75%
    12:00 +18°C° 0 mm 2 m/s 753 mmHg 74%
    13:00 +19°C° 0 mm 2 m/s 753 mmHg 73%
    14:00 +19°C° 0 mm 2 m/s 753 mmHg 71%
    15:00 +20°C° 0 mm 2 m/s 753 mmHg 70%
    16:00 +19°C° 0,1 mm 3 m/s 753 mmHg 76%
    17:00 +18°C° 0,1 mm 3 m/s 753 mmHg 81%
    18:00 +17°C° 0,1 mm 3 m/s 753 mmHg 87%
    19:00 +16°C° 0,1 mm 3 m/s 753 mmHg 88%
    20:00 +16°C° 0,1 mm 3 m/s 753 mmHg 90%
    21:00 +15°C° 0,1 mm 2 m/s 753 mmHg 92%
    22:00 +14°C° 0 mm 3 m/s 753 mmHg 92%
    23:00 +13°C° 0 mm 3 m/s 753 mmHg 92%

    22 Juillet, Dimanche

    Heure Température Précipitation Vent Pression Humidité
    00:00 +13°C° 0 mm 3 m/s 753 mmHg 92%
    01:00 +13°C° 0 mm 3 m/s 753 mmHg 92%
    02:00 +13°C° 0 mm 3 m/s 753 mmHg 93%
    03:00 +13°C° 0 mm 3 m/s 753 mmHg 94%
    04:00 +13°C° 0 mm 3 m/s 753 mmHg 94%
    05:00 +13°C° 0 mm 3 m/s 752 mmHg 93%
    06:00 +14°C° 0 mm 3 m/s 752 mmHg 93%
    07:00 +15°C° 0 mm 4 m/s 752 mmHg 91%
    08:00 +17°C° 0 mm 4 m/s 752 mmHg 88%
    09:00 +18°C° 0 mm 4 m/s 752 mmHg 86%
    10:00 +19°C° 0 mm 4 m/s 752 mmHg 82%
    11:00 +21°C° 0 mm 5 m/s 752 mmHg 79%
    12:00 +22°C° 0 mm 5 m/s 752 mmHg 76%
    13:00 +22°C° 0 mm 5 m/s 752 mmHg 75%
    14:00 +22°C° 0 mm 6 m/s 752 mmHg 74%
    15:00 +22°C° 0 mm 6 m/s 752 mmHg 74%
    16:00 +21°C° 0 mm 6 m/s 751 mmHg 76%
    17:00 +20°C° 0 mm 6 m/s 751 mmHg 79%
    18:00 +20°C° 0 mm 6 m/s 751 mmHg 82%
    19:00 +19°C° 0 mm 6 m/s 751 mmHg 85%
    20:00 +17°C° 0 mm 5 m/s 751 mmHg 89%
    21:00 +17°C° 0 mm 5 m/s 751 mmHg 93%
    22:00 +16°C° 0,1 mm 5 m/s 751 mmHg 93%
    23:00 +16°C° 0,1 mm 5 m/s 751 mmHg 94%

    23 Juillet, Lundi

    Heure Température Précipitation Vent Pression Humidité
    00:00 +16°C° 0,1 mm 5 m/s 751 mmHg 94%
    01:00 +16°C° 0 mm 5 m/s 751 mmHg 95%
    02:00 +15°C° 0 mm 4 m/s 751 mmHg 96%
    03:00 +15°C° 0 mm 4 m/s 751 mmHg 97%
    04:00 +15°C° 0 mm 4 m/s 751 mmHg 96%
    05:00 +15°C° 0 mm 4 m/s 751 mmHg 95%
    06:00 +17°C° 0 mm 3 m/s 751 mmHg 94%
    07:00 +18°C° 0 mm 4 m/s 751 mmHg 89%
    08:00 +19°C° 0 mm 4 m/s 751 mmHg 85%
    09:00 +20°C° 0 mm 4 m/s 751 mmHg 81%
    10:00 +20°C° 0,1 mm 4 m/s 751 mmHg 82%
    11:00 +20°C° 0,1 mm 4 m/s 751 mmHg 83%
    12:00 +20°C° 0,1 mm 5 m/s 751 mmHg 84%
    13:00 +21°C° 0,1 mm 5 m/s 751 mmHg 83%
    14:00 +21°C° 0,1 mm 5 m/s 750 mmHg 81%
    15:00 +21°C° 0,1 mm 5 m/s 750 mmHg 80%
    16:00 +21°C° 0,1 mm 5 m/s 750 mmHg 81%
    17:00 +21°C° 0,1 mm 5 m/s 750 mmHg 82%
    18:00 +21°C° 0,1 mm 5 m/s 750 mmHg 84%
    19:00 +20°C° 0,1 mm 4 m/s 750 mmHg 87%
    20:00 +19°C° 0,1 mm 4 m/s 750 mmHg 90%
    21:00 +18°C° 0,1 mm 4 m/s 750 mmHg 93%
    22:00 +18°C° 0 mm 3 m/s 750 mmHg 94%
    23:00 +17°C° 0 mm 3 m/s 750 mmHg 95%
    Voir plus